Change the Weather History Date:

Sunday, November 4, 2012

  Actual Average Record
Temperature  
Mean Temperature 78 °F 72 °F  
Max Temperature 88 °F 82 °F 97 °F (1988)
Min Temperature 67 °F 63 °F 42 °F (1936)
Degree Days  
Heating Degree Days 0 1  
Month to date heating degree days 0 4  
Since 1 July heating degree days 2 8  
Cooling Degree Days 13 8  
Month to date cooling degree days 50 33  
Year to date cooling degree days 4483 3798  
Growing Degree Days 28 (Base 50)    
Moisture  
Dew Point 68 °F    
Average Humidity 73    
Maximum Humidity 93    
Minimum Humidity 53    
Precipitation  
Precipitation 0.01 in 0.08 in 2.29 in (1998)
Month to date precipitation 0.01 0.33  
Year to date precipitation 20.93 24.80  
Sea Level Pressure  
Sea Level Pressure 30.03 in    
Wind  
Wind Speed 4 mph (SE)    
Max Wind Speed 25 mph    
Max Gust Speed 32 mph    
Visibility 10 miles    
Events Rain    
T = Trace of Precipitation, MM = Missing Value Source: NWS Daily Summary

Daily Weather History Graph

Daily Weather History Graph

Search for Another Location

Airport or City:

Trip Planner

Search our weather history database for the weather conditions in past years. The results will help you decide how hot, cold, wet, or windy it might be!

Date:

Astronomy

Nov. 04, 2012 Rise Set
Actual Time 6:40 AM CST 5:45 PM CST
Civil Twilight 6:16 AM CST 6:09 PM CST
Nautical Twilight 5:49 AM CST 6:36 PM CST
Astronomical Twilight 5:22 AM CST 7:04 PM CST
Moon 10:29 PM CST (11/4) 11:19 AM CST (11/4)
Length of Visible Light 11h 52m
Length of Day
11h 05m
Waning Gibbous, 72% of the Moon is Illuminated
Nov 4
Waning Gibbous
Nov 6
Last Quarter
Nov 13
New
Nov 20
First Quarter
Nov 28
Full

Hourly Weather History & Observations

Time (CST) Temp. Heat Index Dew Point Humidity Pressure Visibility Wind Dir Wind Speed Gust Speed Precip Events Conditions
12:53 AM 75.0 °F - 71.1 °F 87% 30.01 in 10.0 mi SE 5.8 mph - N/A   Clear
1:53 AM 73.9 °F - 70.0 °F 87% 30.00 in 10.0 mi ESE 3.5 mph - N/A   Clear
1:53 AM 73.9 °F - 70.0 °F 87% 30.01 in 10.0 mi East 4.6 mph - N/A   Clear
2:53 AM 73.0 °F - 70.0 °F 90% 30.00 in 10.0 mi East 4.6 mph - N/A   Clear
3:53 AM 73.0 °F - 71.1 °F 93% 30.00 in 10.0 mi ESE 4.6 mph - N/A   Clear
4:53 AM 73.0 °F - 71.1 °F 93% 30.00 in 10.0 mi SE 4.6 mph - N/A   Clear
5:53 AM 73.0 °F - 71.1 °F 93% 30.01 in 10.0 mi Calm Calm - N/A   Clear
6:53 AM 73.0 °F - 70.0 °F 90% 30.04 in 10.0 mi Calm Calm - N/A   Clear
7:53 AM 75.0 °F - 72.0 °F 90% 30.05 in 9.0 mi Calm Calm - N/A   Clear
8:53 AM 79.0 °F - 73.0 °F 82% 30.06 in 10.0 mi ESE 3.5 mph - N/A   Clear
9:53 AM 82.9 °F 85.8 °F 68.0 °F 60% 30.08 in 10.0 mi SE 9.2 mph - N/A   Mostly Cloudy
10:53 AM 87.1 °F 90.6 °F 68.0 °F 53% 30.06 in 10.0 mi SSE 8.1 mph - N/A   Clear
11:53 AM 84.9 °F 87.6 °F 66.9 °F 55% 30.03 in 10.0 mi SSE 6.9 mph - N/A   Partly Cloudy
12:53 PM 80.1 °F 81.7 °F 64.0 °F 58% 30.02 in 6.0 mi ENE 20.7 mph 27.6 mph N/A   Haze
1:41 PM 80.6 °F 81.8 °F 62.6 °F 54% 30.01 in 10.0 mi SSE 9.2 mph - 0.00 in   Partly Cloudy
1:53 PM 78.1 °F - 63.0 °F 60% 30.01 in 10.0 mi SE 8.1 mph - 0.00 in   Scattered Clouds
2:53 PM 73.0 °F - 66.9 °F 81% 30.00 in 10.0 mi South 11.5 mph - 0.00 in Rain Light Rain
3:53 PM 72.0 °F - 66.0 °F 81% 30.01 in 10.0 mi Calm Calm - 0.01 in   Clear
4:53 PM 72.0 °F - 68.0 °F 87% 30.02 in 10.0 mi Calm Calm - N/A   Clear
5:53 PM 71.1 °F - 68.0 °F 90% 30.03 in 10.0 mi Calm Calm - N/A   Clear
6:53 PM 71.1 °F - 68.0 °F 90% 30.05 in 10.0 mi West 3.5 mph - N/A   Clear
7:53 PM 71.1 °F - 66.0 °F 84% 30.07 in 10.0 mi North 3.5 mph - N/A   Clear
8:53 PM 69.1 °F - 64.9 °F 87% 30.07 in 10.0 mi Calm Calm - N/A   Clear
9:53 PM 69.1 °F - 64.9 °F 87% 30.07 in 10.0 mi Calm Calm - N/A   Clear
10:53 PM 69.1 °F - 64.9 °F 87% 30.06 in 10.0 mi Calm Calm - N/A   Clear